STARLINK-3576, 51883

Orbit data source: Space-Track

STARLINK-3576, 51883 is a payload satellite owned by SpaceX/Seattle (US) in LEO that was launched on Thu, 03 Mar 2022 UTC via an FALCON 9 launch vehicle from the Air Force Eastern Test Range (AFETR). Payload-class satellites include a variety of spacecraft equipped with specific instruments for various scientific and technological missions. These include communications satellites like Starlink; space stations such as the ISS; scientific satellites like the Hubble; Earth observation satellites from companies like Planet Labs, Umbra, and HawkEye 360; GPS; miniature CubeSats for education and research; and military/defense satellites.

Loading next visibility...
Identifier
51883, 2022-022AH
Orbit
LEO
Country
Flag of USUS
Related business
Manufacturer
SpaceX/Seattle
Mission
Operational Commercial Communications
Bus & Motor
STARLINK, Unknown motor
Mass
297 kg wet, ~275 kg dry
Launch date (UTC)
2022-03-03 (4 years ago)
Launch vehicle
FALCON 9
Launch site
Air Force Eastern Test Range (AFETR)
Object type
Payload
Rocket body
Debris
Shape & HBR
Box + 1 Pan, 10.1 m
Radar Cross Section
13.562 m², Large (>1 m²)

Expand to show TLE details & history
Last TLE update: 2 days ago

TLE from 2 days ago
0 STARLINK-3576
1 51883U 22022AH  26171.45673558  .00000275  00000-0  35348-4 0  9994
2 51883  53.1602 257.8480 0001197  82.1544 277.9583 15.08836383238751
Epoch: 2026-06-20T10:57Z
TLE epoch observation values (Epoch: 2026-06-20T10:57:41.954Z)
Latitude
-0.00003°
Longitude
-175.24792°
Altitude
540.531 km
Speed
7.593 km/s
True Right ascension
17h 11m 23s
True Declination
0° 00' 00"
Sunlit
Object was in full shadow at epoch
Visualization orbit readout
Latitude
Unknown
Longitude
Unknown
Altitude
Unknown
Speed
Unknown
Apparent Right ascension
Unknown
Apparent Declination
Unknown
Sunlit
N/A
Visualization observer readout
Local Sidereal Time
21:31:47
Azimuth
Unknown
Elevation
Unknown
Doppler factor
Unknown
Orbital elements
Apogee altitude
540.837 km
Perigee altitude
539.18 km
Semi-major axis
6,918.146 km
Eccentricity
0.00012
Inclination
53.1602°
RAAN
257.848°
Arg. of periapsis
82.1544°
True anomaly
277.94472°
Mean anomaly
277.9583°
Eccentric anomaly
277.95151°
Mean motion
3.77189 °/min
Orbital period
95.44 mins
BSTAR
0.000035348
Loading maneuver chart data...
Computing Atmospheric mass density...
Loading historical data...
Loading historical data...
Loading historical data...
Loading historical data...
Loading historical data...
Loading historical data...
Loading historical data...

Documentation

Showing up to 5 results
|